User: anonymous   Login
Location: White Ridge parking lot
(35.4984°N, 106.8413°W)
Time: 09:31:48
(UTC-06:00)
Language:

EO-79 - Orbit

View from above orbital plane
View from above orbital plane
View from above satellite
View from above satellite

Ground track
Ground track

The orbit data is extracted from the following two-line orbital elements,

1 40025U 14033R   19266.00092223  .00000228  00000-0  30205-4 0  9990
2 40025  97.9030 185.5193 0013852 100.9733 259.3043 14.88983530285656
Epoch (UTC): 23 September 2019 00:01:19
Eccentricity: 0.0013852
inclination: 97.9030°
perigee height: 591 km
apogee height: 611 km
right ascension of ascending node: 185.5193°
argument of perigee: 100.9733°
revolutions per day: 14.88983530
mean anomaly at epoch: 259.3043°
orbit number at epoch: 28565

The dashed part of the orbit path shows where the satellite is in the earth's shadow,  

DLR